User: anonymous   Login
Location: Unspecified
(0.0000°N, 0.0000°E)
Time: 10:18:35
(UTC+00:00)
Language:

GONETS M 08 (M18) - Orbit

View from above orbital plane
View from above orbital plane
View from above satellite
View from above satellite

Ground track
Ground track

The orbit data is extracted from the following two-line orbital elements,

1 40061U 14036A   17080.84998707 +.00000010 +00000-0 +00000-0 0  9994
2 40061 082.5071 243.3117 0028229 310.9795 048.8842 12.42897478123275
Epoch (UTC): 21 March 2017 20:23:58
Eccentricity: 0.0028229
inclination: 82.5071°
perigee height: 1472 km
apogee height: 1516 km
right ascension of ascending node: 243.3117°
argument of perigee: 310.9795°
revolutions per day: 12.42897478
mean anomaly at epoch: 48.8842°
orbit number at epoch: 12327

The dashed part of the orbit path shows where the satellite is in the earth's shadow,  

DLR